Location: Rock Island IL
(41.5000°N, 90.5500°W)
Time: 18:19:30
(UTC-06:00)

Tiangong 2 - Visible Passes

Search period start: 24 November 2017 00:00
Search period end: 04 December 2017 00:00
Orbit: 386 x 392 km, 42.8° (Epoch: 24 November)

Date Brightness Start Highest point End Pass type
(mag) Time Alt. Az. Time Alt. Az. Time Alt. Az.
25 Nov 3.9 06:16:31 10° SSW 06:18:51 19° SSE 06:21:13 10° E visible
26 Nov 4.3 05:19:48 10° SSE 05:20:52 11° SE 05:21:56 10° SE visible
27 Nov 2.8 05:56:09 10° SW 05:59:03 32° SSE 06:01:58 10° E visible
28 Nov 3.4 05:00:26 19° SSE 05:00:58 20° SSE 05:03:24 10° E visible
28 Nov 1.2 06:34:18 10° WSW 06:37:30 79° SSE 06:40:43 10° ENE visible
29 Nov 1.7 05:37:47 26° SW 05:39:16 54° SSE 05:42:24 10° E visible
30 Nov 3.7 04:42:37 21° ESE 04:42:37 21° ESE 04:44:02 10° E visible
30 Nov 1.0 06:14:56 12° W 06:17:48 78° N 06:21:00 10° ENE visible
01 Dec 1.1 05:19:37 79° ESE 05:19:37 79° ESE 05:22:42 10° ENE visible
02 Dec 4.7 04:24:13 11° E 04:24:13 11° E 04:24:23 10° E visible
02 Dec 1.1 05:56:31 27° W 05:58:04 68° N 06:01:16 10° E visible
03 Dec 2.8 05:01:02 32° ENE 05:01:02 32° ENE 05:02:56 10° ENE visible
03 Dec 1.1 06:33:28 10° WNW 06:36:40 77° N 06:39:52 10° E visible
